Location: Bonny Doon Airfield
(37.0704°N, 122.1252°W)
Time: 05:54:17
(UTC-07:00)

BREEZE M DEB (TANK) - Visible Passes

Search period start: 26 May 2017 00:00
Search period end: 05 June 2017 00:00
Orbit: 312 x 13710 km, 49.5° (Epoch: 25 May)

Date Brightness Start Highest point End Pass type
(mag) Time Alt. Az. Time Alt. Az. Time Alt. Az.
27 May 1.9 04:50:58 17° SW 04:53:03 71° SE 04:55:13 10° ENE visible
29 May 3.6 03:57:55 28° SSE 03:58:00 28° SE 04:00:08 10° E visible
01 Jun 2.4 04:46:45 17° WSW 04:48:41 47° NW 04:50:50 10° NE visible
03 Jun 2.3 03:53:35 59° SSE 03:53:43 60° SE 03:55:57 10° ENE visible
